Regional Weather Roundup
Issued by NWS

Home | Current Version | Previous Version | Text Only | Print | Product List | Glossary On
Versions: 1 2 3 4 5 6 7 8 9 10 11 12 13 14 15 16 17 18 19 20 21 22 23 24 25 26 27 28 29 30 31 32 33 34 35 36 37 38 39 40 41 42 43 44 45 46 47 48 49 50
000
ASHW40 PHFO 141132
RWRHI

WEATHER ROUNDUP FOR HAWAII
NATIONAL WEATHER SERVICE HONOLULU HI
100 AM HST SUN FEB 14 2016

THIS IS AN AUTOMATED REPORT THAT HAS NOT BEEN QUALITY CONTROLLED.

NOTE..."FAIR" INDICATES FEW OR NO CLOUDS BELOW 12,000 FEET WITH NO
SIGNIFICANT WEATHER AND/OR OBSTRUCTIONS TO VISIBILITY.

* - THESE SITES REPORT LIMITED FIELDS

HIZ001>004-141200-
KAUAI-NIIHAU-

CITY           SKY/WX    TMP DP  RH WIND       PRES   REMARKS
LIHUE APT      PTCLDY    75  66  73 E12       30.08F
PORT ALLEN*      N/A     66 N/A N/A NE7         N/A
POIPU*           N/A     75 N/A N/A NE6G12      N/A
PRINCEVILLE*     N/A     70 N/A N/A S3          N/A
KOKOLE POINT*  NOT AVBL
MOLOAA DAIRY*    N/A     73  68  83 E3G10       N/A
WAIMEA HTS*    NOT AVBL
PUU OPAE*      NOT AVBL
PUU LUA*       NOT AVBL
MAKAHA RIDGE*    N/A     64  57  77 CALM        N/A
$$

HIZ005>011-141200-
OAHU-

CITY           SKY/WX    TMP DP  RH WIND       PRES   REMARKS
HONOLULU       PTCLDY    76  66  71 NE12      30.05F
KALAELOA       PTCLDY    70  63  78 NE5       30.06F
KANEOHE MCB    MOCLDY    75  67  76 E10G21    30.04F
WHEELER FIELD  FAIR      65  63  91 W1        30.06F
BELLOWS*         N/A    N/A N/A N/A NE18G24     N/A
KAHUKU*          N/A    N/A N/A N/A VRB9G17     N/A
WHEELER*       NOT AVBL
WAIANAE HARBOR NOT AVBL
DILLINGHAM*      N/A     63  59  88 MISG        N/A
KAHUKU TRN*      N/A     82  75  78 E7G20       N/A
KAWAILOA*        N/A     68  61  77 CALM        N/A
KII*             N/A     75  68  78 E16G22      N/A
MAKUA RANGE*     N/A     82  77  83 SE6         N/A  HX  91
OAHU FOREST NW NOT AVBL
SCHOFIELD BRK*   N/A    N/A N/A N/A MISG        N/A
SCHOFIELD S*   NOT AVBL
WAIANAE VLY*   NOT AVBL
KUAOKALA*      NOT AVBL
HONOULIUULI*   NOT AVBL
MOKUOLOE IS*   NOT AVBL
PALEHUA*       NOT AVBL
WAIAWA PHB*    NOT AVBL
$$

HIZ012>013-141200-
MOLOKAI-

CITY           SKY/WX    TMP DP  RH WIND       PRES   REMARKS
MOLOKAI AIRPT  CLEAR     69  63  81 N3        30.06F
KALAUPAPA      NOT AVBL
MAKAPULAPAI*     N/A     75  63  64 E14G25      N/A
MOLOKAI 1*     NOT AVBL
PUU ALII*        N/A     56  55  97 E3G12       N/A
$$

HIZ016-141200-
KAHOOLAWE-

CITY           SKY/WX    TMP DP  RH WIND       PRES   REMARKS
KAHOOLAWE*       N/A     68 N/A N/A E1          N/A
HAKIOAWA*        N/A     69  55  60 MISG      30.45F
HONOKANAIA*      N/A     75  62  64 NE14G31     N/A
KANELOA*         N/A     72  63  73 E21G39    30.12F
KEALIALALO*    NOT AVBL
LUA MAKIKA*    NOT AVBL
$$

HIZ014>015-141200-
LANAI-

CITY           SKY/WX    TMP DP  RH WIND       PRES   REMARKS
LANAI CITY     FAIR      65  63  93 NE3       30.10F
LANAI 1*       NOT AVBL
$$

HIZ017>028-141200-
MAUI-

CITY           SKY/WX    TMP DP  RH WIND       PRES   REMARKS
KAHULUI        PTCLDY    68  64  87 SE5       30.05F
KAPALUA-W MAUI NOT AVBL
HANA AIRPORT   NOT AVBL
HANA*            N/A     73 N/A N/A SE7G18      N/A
HALEAKALA SUMM   N/A     48 -11   8 NE7         N/A
MAALAEA BAY*     N/A     70 N/A N/A VRB2        N/A
HALEAKALA*     NOT AVBL
KAUPO GAP*     NOT AVBL
KULA 1*          N/A    N/A N/A N/A NE3         N/A
$$

HIZ023>026-141200-
BIG ISLAND OF HAWAII COAST AND LOWER SLOPES-

CITY           SKY/WX    TMP DP  RH WIND       PRES   REMARKS
KAILUA KONA    NOT AVBL
HILO           MOCLDY    69  60  73 SW7       30.10F
HONOKAA*         N/A     63 N/A N/A VRB1        N/A
KAWAIHAE MWT*    N/A     77 N/A N/A SE3         N/A
KAWAIHAE*      NOT AVBL
SOUTH POINT*     N/A     68 N/A N/A N16G25      N/A
UPOLU AIRPORT*   N/A    N/A N/A N/A E12G17      N/A
KAMUELA*       NOT AVBL
HAKALAU*         N/A     48  14  25 SW6G12      N/A
KALOKO-HONOKO*   N/A    N/A N/A N/A CALM      30.03S
PALI 2*          N/A     59  54  82 N10G18      N/A
KEALAKOMO*       N/A    N/A N/A N/A N12         N/A
KAUPULEHU*     NOT AVBL
KAPAPALA*        N/A     59  48  67 VRB8        N/A
LOWER KAHUKU*    N/A     57 -42   1 N3G12       N/A
PUHE CS*         N/A     75  64  69 SE2         N/A
PUHO CS*         N/A     71  63  76 E2          N/A
PTA KEAMUKU*     N/A     57  55  94 CALM        N/A
WAIKOLOA*      NOT AVBL
$$

HIZ027>028-141200-
BIG ISLAND OF HAWAII INTERIOR AND SUMMMITS-

CITY           SKY/WX    TMP DP  RH WIND       PRES   REMARKS
BRADSHAW FIELD CLOUDY    47  18  31 SE5       30.34S
MK VISITOR CEN   N/A     55 -29   2 NE12        N/A
MAUNA KEA*       N/A     36 -20   8 S7          N/A  WCI  30
MAUNA LOA*       N/A     45 -26   4 MISG        N/A
MAUNA LOA 1*   NOT AVBL
PTA KIPUKA*      N/A     72  70  94 S5G10       N/A
PTA RANGE 17*    N/A     57   5  12 E12G24      N/A
PTA WEST*        N/A     72  68  88 SE9         N/A
NENE CABIN*      N/A     50   9  18 NE10G17     N/A
AHUMOA*        NOT AVBL
PTA PORTABLE*  NOT AVBL
PUU MALI*        N/A     55  12  18 S6          N/A
$$

HIC003-141200-
NORTHWEST ISLANDS-

CITY           SKY/WX    TMP DP  RH WIND       PRES   REMARKS
MIDWAY ISLAND  PTCLDY    57  41  54 NW10      30.24S
MIDWAY NOS*    NOT AVBL
FRENCH FRIGATE NOT AVBL
$$

PHZ110>124-180-141200-
BUOY REPORTS

STATION/POSITION TIME  TEMP    WIND        PRES    WAVE   SWELL
                       AIR SEA DIR/SP/G            HT/PER HT/DIR
                 (UTC) (F)     (DEG/KT/KT) (MB)    (FT/S) (FT/D)
BUOY 51001       1100   71 75  260/ 10/ 14 1018.6R
BUOY 51101       1050   72 75  280/ 12/ 14 1018.6R   7/16   7/310
BUOY 51100       NOT AVBL
BUOY 51002       1050   77 78   90/ 21/ 25 1015.8F  11/10   3/ 20
BUOY 51003       1050   77 78   90/ 14/ 16 1017.2F   6/ 9   5/100
BUOY 51004       1050   76 77   80/ 21/ 25 1016.2F  11/ 9   8/100
BARBERS PT BUOY  NOT AVBL
WAIMEA BAY BUOY  1104      77                N/A     4/12   2/340
KAILUA BAY BUOY  1111      77                N/A     6/ 7   2/350
LANAI BUOY       NOT AVBL
BARBERS PT 2     1103      78                N/A     4/ 8   2/250
PAUWELA MAUI     1107      76                N/A     6/ 6   2/ 20
HILO             1112      77                N/A     8/ 9   3/100
KANEOHE BAY BUOY 1106      76                N/A     5/ 7   2/350
HANALEI KAUAI    1101      77                N/A     5/11   3/320
KAHULUI HARBOR   NOT AVBL
HONOLULU HARBOR  1100   76 77   40/  3/  6 1018.1F
KILO NALU        NOT AVBL
HILO HARBOR      1100   70 76  170/  4/  7 1018.9F
MOKUOLOE         1000   76 77   80/  8/ 11 1018.3F
NAWILIWILI       1100   76 79   60/ 10/ 12 1018.1F
WHOTS BUOY       NOT AVBL
BUOY 51028       NOT AVBL
$$

......................KEY........................................
  SKY/WX - SKY CONDITIONS/PRESENT WEATHER
  TMP    - TEMPERATURE IN FAHRENHEIT
  DWPT   - DEWPOINT IN FAHRENHEIT
  RH     - RELATIVE HUMIDITY IN PERCENT
  WIND   - DIRECTION AND SPEED /MPH FOR ISLANDS...KTS FOR BUOYS/
  PRES   - MEAN SEA LEVEL PRESSURE IN INCHES OF HG
  VSB    - VISIBILITY IN MILES
  HX     - HEAT INDEX
  WCI    - WIND CHILL INDEX
  VRB    - VARIABLE WIND DIRECTION
  N/A    - NOT AVAILABLE



USA.gov is the U.S. government's official web portal to all federal, state and local government web resources and services.